Weather History for Kimball, NE

Change the Weather History Date:

Sunday, July 27, 2014

  Actual Average (KSNY) Record (KSNY)
Temperature  
Mean Temperature 71 °F 76 °F  
Max Temperature 83 °F 91 °F 101 °F (2012)
Min Temperature 59 °F 61 °F 49 °F (2005)
Degree Days  
Heating Degree Days 0 0  
Month to date heating degree days 0  
Since 1 June heating degree days 59  
Since 1 July heating degree days 0  
Cooling Degree Days 6 11  
Month to date cooling degree days 277  
Year to date cooling degree days 436  
Since 1 June cooling degree days 414  
Growing Degree Days 21 (Base 50)    
Moisture  
Dew Point 52 °F    
Average Humidity 57    
Maximum Humidity 97    
Minimum Humidity 27    
Precipitation  
Precipitation 0.00 in 0.10 in 2.57 in (1970)
Month to date precipitation 2.60  
Year to date precipitation 12.54  
Sea Level Pressure  
Sea Level Pressure 30.31 in    
Wind  
Wind Speed 6 mph (ESE)    
Max Wind Speed 12 mph    
Max Gust Speed 29 mph    
Visibility 10 miles    
Events      
T = Trace of Precipitation, MM = Missing Value Source: NWS Daily Summary

Daily Weather History Graph

Daily Weather History Graph

Search for Another Location

Airport:

Trip Planner

Search our weather history database for the weather conditions in past years. The results will help you decide how hot, cold, wet, or windy it might be!

Date:

Astronomy

Jul. 27, 2014 Rise Set
Actual Time 6:45 AM CDT 9:16 PM CDT
Civil Twilight 6:13 AM CDT 9:47 PM CDT
Nautical Twilight 5:34 AM CDT 10:26 PM CDT
Astronomical Twilight 4:50 AM CDT 11:10 PM CDT
Moon 7:35 AM CDT 9:25 PM CDT
Length of Visible Light 15h 33m
Length of Day
14h 30m
New Moon, 1% of the Moon is Illuminated
Jul 27
New Moon
Aug 3
First Quarter
Aug 10
Full
Aug 17
Last Quarter
Aug 25
New

Hourly Weather History & Observations

Time (CDT) Temp. Dew Point Humidity Pressure Visibility Wind Dir Wind Speed Gust Speed Precip Events Conditions
12:15 AM 66.7 °F 61.7 °F 84% 30.23 in 10.0 mi East 5.8 mph - N/A   Clear
12:35 AM 65.3 °F 61.2 °F 86% 30.22 in 10.0 mi ESE 6.9 mph - N/A   Clear
12:55 AM 64.9 °F 61.3 °F 88% 30.23 in 10.0 mi SE 6.9 mph - N/A   Clear
1:15 AM 64.2 °F 61.5 °F 91% 30.23 in 10.0 mi ESE 5.8 mph - N/A   Clear
1:35 AM 63.7 °F 61.2 °F 91% 30.22 in 10.0 mi East 5.8 mph - N/A   Clear
1:55 AM 63.7 °F 61.0 °F 91% 30.23 in 10.0 mi ESE 4.6 mph - N/A   Clear
2:15 AM 63.7 °F 60.8 °F 90% 30.24 in 10.0 mi SE 3.5 mph - N/A   Clear
2:30 AM 62.8 °F 60.3 °F 91% 30.24 in 10.0 mi SE 3.5 mph - N/A   Clear
2:55 AM 61.7 °F 59.7 °F 93% 30.25 in 10.0 mi Calm Calm - N/A   Clear
3:15 AM 61.7 °F 59.7 °F 93% 30.26 in 10.0 mi Calm Calm - N/A   Scattered Clouds
3:35 AM 62.8 °F 60.3 °F 91% 30.26 in 10.0 mi Calm Calm - N/A   Mostly Cloudy
3:55 AM 62.1 °F 59.9 °F 93% 30.26 in 10.0 mi Calm Calm - N/A   Mostly Cloudy
4:15 AM 61.0 °F 59.0 °F 93% 30.26 in 10.0 mi ENE 4.6 mph - N/A   Mostly Cloudy
4:35 AM 61.7 °F 60.1 °F 94% 30.27 in 10.0 mi NE 5.8 mph - N/A   Overcast
4:55 AM 62.2 °F 60.8 °F 95% 30.27 in 10.0 mi NE 5.8 mph - N/A   Overcast
5:15 AM 62.4 °F 60.8 °F 94% 30.28 in 10.0 mi NE 5.8 mph - N/A   Overcast
5:35 AM 61.5 °F 59.9 °F 94% 30.28 in 10.0 mi NE 5.8 mph - N/A   Mostly Cloudy
5:55 AM 60.8 °F 59.4 °F 95% 30.29 in 7.0 mi NE 6.9 mph - N/A   Scattered Clouds
6:15 AM 60.3 °F 59.2 °F 96% 30.30 in 7.0 mi NE 6.9 mph - N/A   Scattered Clouds
6:35 AM 59.9 °F 58.8 °F 96% 30.30 in 7.0 mi NE 4.6 mph - N/A   Clear
6:55 AM 59.2 °F 58.3 °F 97% 30.31 in 7.0 mi NE 3.5 mph - N/A   Clear
7:15 AM 59.0 °F 58.1 °F 97% 30.32 in 7.0 mi NE 3.5 mph - N/A   Clear
7:35 AM 61.0 °F 59.5 °F 95% 30.33 in 7.0 mi ENE 5.8 mph - N/A   Mostly Cloudy
7:55 AM 61.9 °F 56.3 °F 82% 30.34 in 10.0 mi ENE 5.8 mph - N/A   Overcast
8:15 AM 63.0 °F 52.2 °F 68% 30.34 in 10.0 mi ENE 8.1 mph - N/A   Scattered Clouds
8:35 AM 64.6 °F 49.6 °F 58% 30.34 in 10.0 mi ENE 9.2 mph - N/A   Mostly Cloudy
8:55 AM 66.0 °F 46.4 °F 49% 30.36 in 10.0 mi East 10.4 mph - N/A   Overcast
9:15 AM 66.6 °F 46.8 °F 49% 30.36 in 10.0 mi East 10.4 mph - N/A   Overcast
9:35 AM 68.2 °F 44.8 °F 43% 30.37 in 10.0 mi East 10.4 mph - N/A   Overcast
9:55 AM 69.8 °F 45.7 °F 42% 30.37 in 10.0 mi East 10.4 mph - N/A   Overcast
10:15 AM 69.8 °F 46.4 °F 43% 30.37 in 10.0 mi East 8.1 mph - N/A   Mostly Cloudy
10:35 AM 73.2 °F 46.9 °F 39% 30.38 in 10.0 mi East 8.1 mph - N/A   Mostly Cloudy
10:55 AM 74.1 °F 47.5 °F 39% 30.37 in 10.0 mi East 9.2 mph - N/A   Mostly Cloudy
12:15 PM 77.4 °F 48.9 °F 37% 30.37 in 10.0 mi ESE 10.4 mph - N/A   Scattered Clouds
12:35 PM 77.2 °F 49.8 °F 38% 30.37 in 10.0 mi SE 9.2 mph - N/A   Scattered Clouds
12:55 PM 77.4 °F 47.7 °F 35% 30.37 in 10.0 mi ENE 10.4 mph - N/A   Clear
1:15 PM 79.2 °F 48.0 °F 33% 30.36 in 10.0 mi ESE 4.6 mph 28.8 mph N/A   Clear
1:35 PM 78.8 °F 47.1 °F 33% 30.36 in 10.0 mi East 11.5 mph - N/A   Clear
1:55 PM 79.5 °F 46.8 °F 31% 30.36 in 10.0 mi East 8.1 mph 16.1 mph N/A   Clear
2:15 PM 80.4 °F 46.8 °F 31% 30.36 in 10.0 mi East 10.4 mph 16.1 mph N/A   Clear
2:35 PM 80.4 °F 46.4 °F 30% 30.35 in 10.0 mi ENE 10.4 mph - N/A   Clear
2:55 PM 81.5 °F 46.8 °F 29% 30.34 in 10.0 mi ESE 6.9 mph 18.4 mph N/A   Clear
3:15 PM 82.8 °F 46.6 °F 28% 30.34 in 10.0 mi East 10.4 mph 20.7 mph N/A   Scattered Clouds
3:35 PM 82.6 °F 45.7 °F 27% 30.34 in 10.0 mi SSW 4.6 mph - N/A   Scattered Clouds
3:55 PM 82.0 °F 46.2 °F 28% 30.33 in 10.0 mi SSE 5.8 mph - N/A   Scattered Clouds
4:15 PM 82.4 °F 46.6 °F 28% 30.33 in 10.0 mi South 5.8 mph - N/A   Mostly Cloudy
4:35 PM 80.8 °F 46.6 °F 30% 30.33 in 10.0 mi West 3.5 mph - N/A   Scattered Clouds
4:55 PM 81.9 °F 47.3 °F 30% 30.32 in 10.0 mi NNW 3.5 mph - N/A   Clear
5:15 PM 80.2 °F 46.6 °F 31% 30.32 in 10.0 mi SE 6.9 mph - N/A   Clear
5:35 PM 83.7 °F 46.8 °F 27% 30.31 in 10.0 mi SSE 9.2 mph - N/A   Scattered Clouds
5:55 PM 83.5 °F 46.9 °F 28% 30.31 in 10.0 mi SE 11.5 mph - N/A   Mostly Cloudy
6:15 PM 81.5 °F 46.9 °F 30% 30.30 in 10.0 mi Calm Calm - N/A   Scattered Clouds
6:35 PM 82.4 °F 46.8 °F 29% 30.30 in 10.0 mi SSE 5.8 mph - N/A   Clear
6:55 PM 81.7 °F 46.8 °F 29% 30.30 in 10.0 mi SE 11.5 mph - N/A   Scattered Clouds
7:15 PM 82.4 °F 46.8 °F 29% 30.30 in 10.0 mi SSE 9.2 mph - N/A   Clear
7:35 PM 80.6 °F 46.4 °F 30% 30.31 in 10.0 mi SE 10.4 mph 16.1 mph N/A   Clear
7:55 PM 77.9 °F 46.4 °F 33% 30.30 in 10.0 mi ESE 10.4 mph - N/A   Clear
8:15 PM 78.1 °F 47.5 °F 34% 30.31 in 10.0 mi SE 8.1 mph - N/A   Clear
8:35 PM 77.9 °F 47.5 °F 34% 30.31 in 10.0 mi SE 8.1 mph - N/A   Clear
8:55 PM 74.8 °F 48.4 °F 39% 30.32 in 10.0 mi ESE 6.9 mph - N/A   Clear
9:15 PM 71.2 °F 49.1 °F 45% 30.32 in 10.0 mi ESE 5.8 mph - N/A   Clear
9:35 PM 69.6 °F 48.6 °F 47% 30.32 in 10.0 mi ESE 5.8 mph - N/A   Clear
9:55 PM 69.1 °F 48.2 °F 47% 30.33 in 10.0 mi SE 6.9 mph - N/A   Mostly Cloudy
10:15 PM 69.3 °F 47.5 °F 46% 30.33 in 10.0 mi ESE 6.9 mph - N/A   Mostly Cloudy
10:35 PM 69.8 °F 47.5 °F 45% 30.34 in 10.0 mi SE 4.6 mph - N/A   Overcast
10:55 PM 69.3 °F 48.2 °F 47% 30.35 in 10.0 mi SE 5.8 mph - N/A   Scattered Clouds
11:15 PM 68.7 °F 48.4 °F 48% 30.35 in 10.0 mi SE 5.8 mph - N/A   Scattered Clouds
11:55 PM 68.9 °F 47.5 °F 46% 30.35 in 10.0 mi SSE 8.1 mph - N/A   Mostly Cloudy